[[{"header":{"parameterUnit":"m.s-1","parameterCategory":1,"la1":30.2991,"la2":30.254,"lo1":-89.0895,"lo2":-89.0444,"dy":0.0017,"dx":0.0017,"nx":28,"ny":28,"refTime":"2023-09-28T21:00:00:Z","depth":0,"parameterNumber":2,"parameterNumberName":"U-component_of_WINDS"},"data":[0,0,0,0,0,0,0,0,0,0,0,0,0,0,0,0,0,0,0,0,0,0,0,0,0,0,0,0,0,0,0,0,0,0,0,0,0,0,0,0,0,0,0,0,0,0,0,0,0,0,0,0,0,0,0,0,0,0,-2.9295,-2.9295,0,-2.9264,-2.9263,-2.9263,-2.9155,-2.9152,-2.915,-2.9148,-2.9119,-2.9121,-2.9122,0,0,0,0,0,0,0,0,0,0,0,0,0,-2.9265,-2.9266,-2.9295,-2.9295,-2.9294,-2.9264,-2.9263,-2.9263,-2.9155,-2.9152,-2.9149,-2.9146,-2.9119,-2.9121,-2.9123,0,0,0,0,0,0,0,0,0,0,0,0,0,-2.9261,-2.9267,-2.9295,-2.9237,-2.9231,-2.9264,-2.9263,-2.9263,-2.9156,-2.9152,-2.9148,-2.9145,-2.9118,-2.912,-2.9123,-2.9211,0,0,-2.913,-2.9131,0,0,0,0,0,0,0,0,-2.9261,-2.9262,-2.9246,-2.9241,-2.9235,-2.9209,-2.9242,-2.9245,-2.9157,-2.9185,-2.9147,-2.9143,-2.9153,-2.9152,-2.9154,-2.9209,-2.9208,-2.913,-2.9131,-2.9132,-2.9133,0,0,0,0,0,0,0,-2.9262,-2.9263,-2.9283,-2.9246,-2.9239,-2.9213,-2.9209,-2.9242,-2.919,-2.9182,-2.9174,-2.9171,-2.9149,-2.9152,-2.9153,-2.9208,-2.913,-2.9132,-2.9133,-2.9134,-2.9336,-2.934,0,0,0,0,0,0,-2.927,-2.9264,-2.9284,-2.9282,-2.9239,-2.9217,-2.9212,-2.9221,-2.9189,-2.918,-2.9175,-2.9167,-2.915,-2.915,-2.9151,-2.9254,-2.9132,-2.9135,-2.9136,-2.9332,-2.9337,-2.9341,0,0,0,0,0,0,-2.9269,-2.9272,-2.9285,-2.9271,-2.927,-2.9221,-2.9233,-2.9223,-2.9226,-2.9183,-2.9174,-2.9188,-2.9147,-2.9148,-2.9197,-2.9251,-2.9136,-2.9138,-2.9327,-2.9333,-2.9339,-2.9459,0,0,0,0,0,0,-2.9269,-2.9273,-2.9305,-2.9272,-2.9271,-2.933,-2.9236,-2.9225,-2.9229,-2.9219,-2.9193,-2.9185,-2.9144,-2.9194,-2.9199,-2.9252,-2.9139,-2.9322,-2.933,-2.9337,-2.945,-2.9469,-2.9484,0,0,0,0,0,-2.9268,-2.934,-2.9307,-2.931,-2.931,-2.9333,-2.9333,-2.9284,-2.9234,-2.9267,-2.924,-2.9186,-2.9244,-2.92,-2.9205,-2.926,-2.9318,-2.9328,-2.9336,-2.9443,-2.9465,-2.9484,0,0,0,0,0,0,-2.9382,-2.9335,-2.9298,-2.9361,-2.9352,-2.9315,-2.9355,-2.9308,-2.9314,-2.9304,-2.9243,-2.9238,-2.9297,-2.9282,-2.9234,-2.9344,-2.9272,-2.9283,-2.9352,-2.9372,-2.9389,-2.9393,-2.9141,0,0,0,0,0,-2.9414,-2.9436,-2.9394,-2.9454,-2.9451,-2.9404,-2.9412,-2.9375,-2.9364,-2.936,-2.9336,-2.9329,-2.9345,-2.9358,-2.937,-2.9447,-2.9441,-2.9487,-2.9504,-2.9518,-2.9529,-2.9571,-2.9592,-2.937,-2.937,-2.937,0,0,-2.9481,-2.9458,-2.9476,-2.9476,-2.9465,-2.9491,-2.9402,-2.9432,-2.9451,-2.9365,-2.941,-2.9393,-2.938,-2.9444,-2.9471,-2.9434,-2.9588,-2.953,-2.9541,-2.9544,-2.9582,-2.9603,-2.9622,-2.9376,-2.9375,-2.9374,0,0,-2.9617,-2.9601,-2.965,-2.9641,-2.9624,-2.9593,-2.9605,-2.9575,-2.956,-2.9604,-2.954,-2.9563,-2.9592,-2.9586,-2.9587,-2.9723,-2.9675,-2.9728,-2.9818,-2.986,-2.9878,-2.9893,-2.9944,-2.9963,-2.9738,-2.9739,-2.9739,0,-2.9704,-2.9738,-2.9682,-2.9717,-2.972,-2.9641,-2.9692,-2.9686,-2.9675,-2.968,-2.9638,-2.9675,-2.966,-2.9723,-2.9757,-2.9759,-2.9773,-2.9732,-2.9879,-2.9894,-2.9908,-2.9956,-2.9975,-2.9746,-2.9745,-2.9744,-2.9743,0,-2.9846,-2.9872,-2.9914,-2.9905,-2.9912,-2.9955,-2.9907,-2.9921,-2.9883,-2.9856,-2.9904,-2.9884,-2.9892,-2.9904,-2.9867,-2.9962,-2.994,-2.989,-2.9817,-2.9937,-2.9981,-2.9999,-2.9755,-2.9753,-2.9751,-2.9749,0,0,-3.0055,-3.0014,-3.003,-3.0026,-3.0003,-3.0022,-3.0062,-3.0069,-3.0085,-3.008,-3.0114,-3.0141,-3.0094,-3.0096,-3.0057,-3.0094,-3.0206,-3.0039,-3.0038,-3.0073,-3.0313,-3.0353,-3.0375,-3.0173,-3.0176,-3.0178,-3.0315,0,-3.0186,-3.0251,-3.0202,-3.0276,-3.0301,-3.0227,-3.0262,-3.0252,-3.0229,-3.0247,-3.022,-3.0242,-3.0177,-3.0178,-3.0211,-3.0185,-3.0254,-3.0174,-3.0206,-3.0208,-3.0215,-3.0398,-3.044,-3.057,-3.0332,-3.0335,-3.0337,0,-3.0348,-3.0351,-3.0428,-3.0401,-3.0409,-3.0442,-3.0445,-3.0463,-3.0451,-3.0431,-3.0434,-3.0386,-3.0426,-3.0353,-3.0408,-3.0355,-3.0365,-3.0355,-3.0359,-3.0362,-3.0282,-3.0409,-3.061,-3.0631,-3.0363,-3.0361,-3.0359,0,-3.0496,-3.0518,-3.0568,-3.0566,-3.0535,-3.056,-3.0549,-3.0533,-3.0542,-3.0545,-3.055,-3.0559,-3.0564,-3.0573,-3.053,-3.048,-3.0592,-3.0514,-3.0579,-3.0581,-3.0608,-3.0608,-3.0816,-3.061,-3.061,-3.0609,-3.0609,0,-3.065,-3.0701,-3.0634,-3.0665,-3.072,-3.0663,-3.072,-3.0701,-3.0688,-3.0716,-3.0651,-3.0679,-3.0619,-3.0641,-3.0608,-3.066,-3.0662,-3.0649,-3.0641,-3.0657,-3.0659,-3.0665,-3.0656,-3.0614,-3.0613,-3.0612,-3.0612,0,-3.0825,-3.0782,-3.0832,-3.0798,-3.0791,-3.0834,-3.0806,-3.0834,-3.0806,-3.0841,-3.0846,-3.0803,-3.0825,-3.0783,-3.08,-3.0777,-3.0852,-3.0827,-3.0856,-3.085,-3.0918,-3.0914,-3.114,-3.1168,-3.0942,-3.0944,-3.0946,0,-3.0927,-3.0965,-3.0935,-3.0948,-3.094,-3.0962,-3.097,-3.0916,-3.0927,-3.0918,-3.0948,-3.0965,-3.0976,-3.1015,-3.0987,-3.1,-3.0977,-3.1055,-3.0979,-3.0995,-3.0982,-3.0982,-3.0987,-3.1073,-3.1075,-3.1077,-3.1079,0,-3.1115,-3.1092,-3.1105,-3.1112,-3.1123,-3.1126,-3.1124,-3.1139,-3.1081,-3.1097,-3.1119,-3.1128,-3.1145,-3.1164,-3.117,-3.116,-3.1112,-3.1103,-3.1119,-3.1138,-3.1154,-3.115,-3.0902,-3.1099,-3.1097,-3.1096,-3.1094,-3.1094,-3.1258,-3.1289,-3.1274,-3.1291,-3.1284,-3.1284,-3.131,-3.1284,-3.1301,-3.1311,-3.1277,-3.1308,-3.1297,-3.13,-3.1296,-3.132,-3.1285,-3.1308,-3.1314,-3.1322,-3.1334,-3.1148,-3.132,-3.132,-3.1319,-3.1319,-3.1318,0,-3.1445,-3.1431,-3.1448,-3.1447,-3.1462,-3.1412,-3.1408,-3.1425,-3.1451,-3.1445,-3.1457,-3.1483,-3.1501,-3.1474,-3.1488,-3.1513,-3.1491,-3.1519,-3.1518,-3.1517,-3.1363,-3.1349,-3.1536,-3.1536,-3.1536,-3.1536,-3.1536,-3.1536,-3.1544,-3.1594,-3.1569,-3.1616,-3.1602,-3.163,-3.1633,-3.1634,-3.1628,-3.166,-3.1675,-3.1656,-3.1642,-3.1654,-3.167,-3.1661,-3.1671,-3.1707,-3.1691,-3.1548,-3.1527,-3.1507,-3.1494,-3.1709,-3.1709,-3.1844,-3.1845,-3.1846]},{"header":{"parameterUnit":"m.s-1","parameterCategory":1,"la1":30.2991,"la2":30.254,"lo1":-89.0895,"lo2":-89.0444,"dy":0.0017,"dx":0.0017,"nx":28,"ny":28,"refTime":"2023-09-28T21:00:00:Z","depth":0,"parameterNumber":3,"parameterNumberName":"V-component_of_WINDS"},"data":[0,0,0,0,0,0,0,0,0,0,0,0,0,0,0,0,0,0,0,0,0,0,0,0,0,0,0,0,0,0,0,0,0,0,0,0,0,0,0,0,0,0,0,0,0,0,0,0,0,0,0,0,0,0,0,0,0,0,-0.7226,-0.7226,0,-0.7235,-0.7235,-0.7235,-0.7224,-0.7224,-0.7223,-0.7223,-0.7233,-0.7233,-0.7234,0,0,0,0,0,0,0,0,0,0,0,0,0,-0.7199,-0.72,-0.7226,-0.7226,-0.7226,-0.7235,-0.7235,-0.7235,-0.7224,-0.7224,-0.7223,-0.7223,-0.7233,-0.7233,-0.7234,0,0,0,0,0,0,0,0,0,0,0,0,0,-0.721,-0.72,-0.7226,-0.7222,-0.7221,-0.7235,-0.7235,-0.7235,-0.7224,-0.7224,-0.7223,-0.7222,-0.7232,-0.7233,-0.7234,-0.7253,0,0,-0.7237,-0.7238,0,0,0,0,0,0,0,0,-0.7209,-0.7211,-0.7222,-0.7222,-0.7222,-0.7228,-0.7229,-0.7241,-0.7224,-0.7223,-0.7223,-0.7222,-0.7232,-0.7233,-0.7236,-0.7253,-0.7254,-0.7237,-0.7238,-0.7238,-0.7239,0,0,0,0,0,0,0,-0.7208,-0.721,-0.7229,-0.7222,-0.7222,-0.7219,-0.722,-0.7232,-0.7231,-0.7223,-0.7222,-0.7224,-0.7231,-0.7235,-0.7236,-0.7254,-0.7237,-0.7238,-0.7239,-0.7239,-0.7289,-0.7289,0,0,0,0,0,0,-0.7208,-0.721,-0.7229,-0.723,-0.7214,-0.722,-0.7221,-0.7226,-0.7231,-0.7231,-0.7224,-0.7223,-0.7234,-0.7235,-0.7236,-0.726,-0.7238,-0.7239,-0.724,-0.7288,-0.7289,-0.7289,0,0,0,0,0,0,-0.7208,-0.721,-0.7229,-0.722,-0.7222,-0.7221,-0.7227,-0.7227,-0.723,-0.7231,-0.7231,-0.7228,-0.7233,-0.7235,-0.7249,-0.726,-0.724,-0.7241,-0.7287,-0.7288,-0.7289,-0.7306,0,0,0,0,0,0,-0.7207,-0.721,-0.7217,-0.722,-0.7222,-0.7241,-0.7228,-0.7228,-0.7232,-0.7231,-0.7235,-0.7235,-0.7233,-0.7248,-0.725,-0.7261,-0.7241,-0.7286,-0.7287,-0.7289,-0.7304,-0.7307,-0.731,0,0,0,0,0,-0.7206,-0.7221,-0.7217,-0.722,-0.7231,-0.7242,-0.7243,-0.7241,-0.7233,-0.724,-0.7241,-0.7235,-0.7258,-0.7249,-0.7252,-0.7263,-0.7285,-0.7287,-0.7289,-0.7303,-0.7307,-0.731,0,0,0,0,0,0,-0.7219,-0.7221,-0.7217,-0.7233,-0.7238,-0.724,-0.7249,-0.7244,-0.7251,-0.7249,-0.7245,-0.7247,-0.7262,-0.7264,-0.7254,-0.7282,-0.727,-0.7273,-0.728,-0.7284,-0.7287,-0.7287,-0.7242,0,0,0,0,0,-0.7224,-0.7233,-0.7234,-0.7248,-0.7251,-0.7249,-0.7254,-0.7251,-0.7256,-0.7258,-0.7259,-0.7264,-0.7272,-0.7278,-0.7285,-0.7304,-0.7305,-0.7313,-0.7315,-0.7318,-0.732,-0.7331,-0.7335,-0.7295,-0.7295,-0.7295,0,0,-0.7234,-0.7236,-0.7242,-0.7251,-0.7254,-0.7264,-0.7251,-0.7261,-0.7269,-0.7259,-0.7273,-0.7274,-0.7279,-0.7296,-0.7303,-0.7298,-0.7331,-0.732,-0.7322,-0.7323,-0.7333,-0.7337,-0.7341,-0.7296,-0.7296,-0.7295,0,0,-0.7258,-0.726,-0.7273,-0.7276,-0.728,-0.728,-0.7283,-0.7286,-0.7286,-0.73,-0.7294,-0.7302,-0.7316,-0.732,-0.7324,-0.735,-0.7345,-0.7352,-0.7367,-0.7378,-0.7381,-0.7384,-0.7395,-0.7398,-0.7354,-0.7354,-0.7354,0,-0.727,-0.7284,-0.728,-0.7291,-0.7296,-0.7287,-0.73,-0.7304,-0.7311,-0.7314,-0.7307,-0.7326,-0.7328,-0.7347,-0.7353,-0.7356,-0.736,-0.7352,-0.7381,-0.7384,-0.7387,-0.7397,-0.74,-0.7355,-0.7355,-0.7355,-0.7355,0,-0.7299,-0.7309,-0.7319,-0.7326,-0.7332,-0.7344,-0.7342,-0.7348,-0.7345,-0.7345,-0.7359,-0.7362,-0.737,-0.7374,-0.7371,-0.7392,-0.7389,-0.7382,-0.737,-0.7391,-0.7401,-0.7405,-0.7357,-0.7356,-0.7356,-0.7356,0,0,-0.7333,-0.7337,-0.7341,-0.7345,-0.7349,-0.7357,-0.7369,-0.7377,-0.7383,-0.7388,-0.7399,-0.7411,-0.7404,-0.7409,-0.7406,-0.7415,-0.7437,-0.7407,-0.7407,-0.7414,-0.7462,-0.7469,-0.7474,-0.7433,-0.7434,-0.7434,-0.7463,0,-0.7358,-0.7379,-0.7375,-0.7396,-0.7406,-0.7397,-0.7408,-0.7412,-0.7412,-0.7421,-0.7421,-0.743,-0.742,-0.7423,-0.7432,-0.7433,-0.7447,-0.743,-0.7444,-0.7445,-0.7445,-0.7478,-0.7485,-0.7512,-0.7466,-0.7467,-0.7467,0,-0.739,-0.7397,-0.7418,-0.7422,-0.7426,-0.7435,-0.7443,-0.7451,-0.7456,-0.7455,-0.746,-0.7456,-0.7468,-0.7455,-0.7473,-0.7462,-0.7467,-0.7469,-0.7469,-0.7472,-0.7459,-0.7484,-0.752,-0.7525,-0.7473,-0.7472,-0.7472,0,-0.7414,-0.7428,-0.7443,-0.7446,-0.7451,-0.7458,-0.746,-0.7464,-0.7469,-0.7476,-0.748,-0.7488,-0.7493,-0.7499,-0.7497,-0.7488,-0.7516,-0.7502,-0.7517,-0.7517,-0.7524,-0.7524,-0.7564,-0.7525,-0.7525,-0.7525,-0.7524,0,-0.7444,-0.7458,-0.7455,-0.7464,-0.748,-0.7475,-0.7491,-0.7492,-0.7496,-0.7506,-0.7498,-0.7508,-0.7504,-0.7513,-0.7511,-0.7527,-0.7529,-0.7529,-0.7529,-0.7531,-0.7531,-0.7536,-0.7535,-0.7526,-0.7525,-0.7525,-0.7525,0,-0.7475,-0.7473,-0.7489,-0.7492,-0.7493,-0.7504,-0.7507,-0.7516,-0.7515,-0.7528,-0.7531,-0.753,-0.754,-0.7538,-0.755,-0.7549,-0.7569,-0.7566,-0.7568,-0.7568,-0.7583,-0.7582,-0.7629,-0.7635,-0.759,-0.759,-0.759,0,-0.7494,-0.7505,-0.7509,-0.7515,-0.7518,-0.7528,-0.7534,-0.7529,-0.7536,-0.7542,-0.7551,-0.756,-0.7569,-0.7586,-0.7587,-0.7596,-0.7593,-0.7609,-0.7595,-0.7597,-0.7596,-0.7596,-0.7598,-0.7613,-0.7613,-0.7613,-0.7614,0,-0.7531,-0.7529,-0.7538,-0.7546,-0.7553,-0.756,-0.7565,-0.7571,-0.7567,-0.7575,-0.7585,-0.7592,-0.7603,-0.7614,-0.7622,-0.7625,-0.7619,-0.7618,-0.7622,-0.7625,-0.7627,-0.7628,-0.7578,-0.7617,-0.7617,-0.7617,-0.7617,-0.7616,-0.7558,-0.7567,-0.7572,-0.7582,-0.7586,-0.7591,-0.76,-0.7601,-0.761,-0.762,-0.7616,-0.7629,-0.7634,-0.7645,-0.7648,-0.7658,-0.7652,-0.7658,-0.766,-0.7662,-0.7664,-0.7624,-0.7659,-0.7659,-0.7659,-0.7659,-0.7659,0,-0.7595,-0.7598,-0.7607,-0.7615,-0.7623,-0.7616,-0.7622,-0.763,-0.7641,-0.7646,-0.7654,-0.7667,-0.7677,-0.7678,-0.7688,-0.7696,-0.7694,-0.7699,-0.7699,-0.77,-0.7668,-0.7664,-0.77,-0.77,-0.77,-0.77,-0.77,-0.77,-0.7616,-0.7632,-0.7631,-0.765,-0.7652,-0.7665,-0.7669,-0.7674,-0.7678,-0.7693,-0.7701,-0.7702,-0.7706,-0.7716,-0.7725,-0.7725,-0.773,-0.7736,-0.7736,-0.7706,-0.7702,-0.7698,-0.7695,-0.7737,-0.7737,-0.7767,-0.7767,-0.7768]}]]